Location: *
(49.0044°N, 9.5056°E)
Time: 04:34:50
(UTC+00:00)

In-Cosmos 22 - Pass Details

Date: 22 September 2019
Orbit: 785 x 876 km, 81.2° (Epoch: 21 October)

Event Time Altitude Azimuth Distance (km) Brightness Sun altitude
Rises 18:28:39 0° 349° (NNW) 3,311 7.7 -11.8°
Reaches altitude 10° 18:31:01 10° 350° (N) 2,387 6.9 -12.2°
Maximum altitude 18:36:25 78° 78° (ENE) 837 4.1 -13.1°
Drops below altitude 10° 18:41:54 10° 164° (SSE) 2,426 6.3 -13.9°
Sets 18:44:20 0° 166° (SSE) 3,369 7.0 -14.3°
